Location: Be?i?
(36.9044°N, 30.1006°E)
Time: 12:29:29
(UTC+00:00)

USA 281 - Pass Details

Date: 05 August 2024
Orbit: 1078 x 1081 km, 106.0° (Epoch: 04 September)

Event Time Altitude Azimuth Distance (km) Brightness Sun altitude
Exits shadow 22:14:21 39° 60° (ENE) 1,558 4.1 -36.4°
Maximum altitude 22:14:23 39° 59° (ENE) 1,558 4.1 -36.4°
Drops below altitude 10° 22:20:23 10° 353° (N) 2,926 6.2 -36.3°
Sets 22:23:03 0° 346° (NNW) 3,885 7.0 -36.3°
